Regional Weather Roundup
Issued by NWS

Home | Current Version | Previous Version | Text Only | Print | Product List | Glossary On
Versions: 1 2 3 4 5 6 7 8 9 10 11 12 13 14 15 16 17 18 19 20 21 22 23 24 25 26 27 28 29 30 31 32 33 34 35 36 37 38 39 40 41 42 43 44 45 46 47 48 49 50
000
ASUS44 KFWD 280715
RWRTX
NORTH TEXAS HOURLY WEATHER ROUNDUP
NATIONAL WEATHER SERVICE FORT WORTH TX
100 AM CST SAT FEB 28 2015

NOTE: "FAIR" INDICATES FEW OR NO CLOUDS BELOW 12,000 FEET WITH NO
SIGNIFICANT WEATHER AND/OR OBSTRUCTIONS TO VISIBILITY.

TXZ118-119-280800-
DALLAS/FORT WORTH METROPLEX

CITY           SKY/WX    TMP DP  RH WIND       PRES   REMARKS
DFW AIRPORT    FRZ RAIN  26  23  88 NE9       30.40F WCI  17
DALLAS LOVE    FRZ RAIN  27  23  85 E6        30.43F FOG     WCI  20
FTW MEACHAM    FRZ RAIN  27  23  85 NE9       30.40F FOG     WCI  18
DAL-EXECUTIVE  MIX PCPN  27  24  89 NE7       30.40F FOG     WCI  19
FTW-ALLIANCE   FRZ RAIN  24  22  91 NE7       30.40F FOG     WCI  16
FTW-SPINKS     DRIZZLE   27  25  90 NE6       30.41F WCI  21
ARLINGTON      FRZ RAIN  28  23  81 NE8       30.40F WCI  20
GRAND PRAIRIE  CLOUDY    27  26  96 N7        30.43F WCI  19
ADDISON        MIX PCPN  27  24  89 E7        30.44S WCI  20
MESQUITE       CLOUDY    27  24  87 N6        30.44S WCI  21
LANCASTER      DRIZZLE   27  23  85 NE5       30.44S WCI  22
$$

TXZ091>094-102>105-117-120-121-131>134-280800-
NORTH CENTRAL TEXAS

CITY           SKY/WX    TMP DP  RH WIND       PRES   REMARKS
SHRMAN/DENISON CLOUDY    24  24  97 E8        30.43F WCI  15
GAINESVILLE    FLURRIES  22  19  89 NE6       30.43F WCI  14
BOWIE          CLOUDY    21  19  92 NE7       30.39F WCI  13
BRIDGEPORT     FLURRIES  23  22  99 NE5       30.42F WCI  17
DECATUR        CLOUDY    22  21  96 NE8       30.39S WCI  12
DENTON         MIX PCPN  24  21  88 NE8       30.42F WCI  15
MCKINNEY       MIX PCPN  26  23  88 NE5       30.43F WCI  20
GREENVILLE     MIX PCPN  28  27  93 NE5       30.43F WCI  23
TERRELL        FRZ RAIN  30  24  78 NE8       30.43S WCI  22
WAXAHACHIE     MIX PCPN  27  26  96 NE7       30.41F WCI  19
CLEBURNE       CLOUDY    27  25  93 NE12      30.40F WCI  16
GRANBURY       CLOUDY    28  25  89 NE3       30.41F FOG
$$

TXZ083>090-098>101-113>116-127>130-139>142-154-155-280800-
WESTERN NORTH TEXAS

CITY           SKY/WX    TMP DP  RH WIND       PRES   REMARKS
WICHITA FALLS  CLOUDY    20  16  84 NE9       30.42S WCI   9
WF-KICKAPOO    CLOUDY    22  19  89 NE7       30.43S WCI  14
VERNON         CLOUDY    20  14  76 E7        30.41F WCI  11
ABILENE        CLOUDY    21  19  92 E6        30.31F FOG     WCI  13
ABILENE-DYESS  FRZ DRZL  20  18  92 E6        30.30F WCI  12
BRECKENRIDGE   MIX PCPN  24  23  97 NE3       30.37S
GRAHAM         CLOUDY    22  20  94 NE5       30.37F WCI  15
MINERAL WELLS  MIX PCPN  23  21  92 NE3       30.38S FOG
STEPHENVILLE   CLOUDY    25  23  93 NE5       30.37F WCI  19
COMANCHE       CLOUDY    25  25 100 E5        30.34F FOG     WCI  19
BROWNWOOD      CLOUDY    25  25 100 NE7       30.33F FOG     WCI  17
COLEMAN        LGT SNOW  25  25 100 NE8       30.31F WCI  16
BRADY          CLOUDY    25  23  93 E8        30.27F FOG     WCI  16
$$

TXZ143>147-156>162-174-175-280800-
CENTRAL TEXAS

CITY           SKY/WX    TMP DP  RH WIND       PRES   REMARKS
WACO           CLOUDY    28  25  88 N10       30.39F WCI  19
WACO-MCGREGOR    N/A     28  21  74 NE12      30.39F WCI  18
HILLSBORO      CLOUDY    28  24  84 N6        30.39S WCI  22
CORSICANA      CLOUDY    31  24  75 NE8       30.40F WCI  23
MEXIA          CLOUDY    30  24  78 MISG      30.37R
HEARNE         DRIZZLE   34  27  75 NE5       30.38F WCI  30
CAMERON        CLOUDY    32  29  88 N6        30.37S WCI  26
TEMPLE         CLOUDY    28  21  74 N13       30.35S WCI  18
KILLEEN        CLOUDY    27  25  94 NE9       30.34R WCI  18
KILLEEN-SKYLRK CLOUDY    28  21  74 N13       30.34S WCI  18
FORT HOOD      CLOUDY    28  26  93 NE10      30.34S WCI  18
GATESVILLE     CLOUDY    28  27  93 CALM      30.38S
HAMILTON       CLOUDY    26  26 100 NE8       30.34S FOG     WCI  18
LAMPASAS       CLOUDY    28  27  95 NE7       30.33R WCI  21
$$

TXZ095>097-106>112-122>126-135>138-148>153-164>167-280800-
EAST TEXAS

CITY           SKY/WX    TMP DP  RH WIND       PRES   REMARKS
PARIS          CLOUDY    27  21  80 NE10      30.46F WCI  17
SULPHUR SPRNGS CLOUDY    28  25  88 NE7       30.47R WCI  21
MOUNT PLEASANT CLOUDY    30  22  70 NE7       30.46S WCI  23
GILMER         CLOUDY    30  20  67 NE8       30.43S WCI  23
MINEOLA        CLOUDY    30  28  93 CALM      30.44R
TYLER          MIX PCPN  31  22  69 NE8       30.40F WCI  23
LONGVIEW       CLOUDY    33  21  61 E9        30.41F WCI  25
MARSHALL       CLOUDY    33  23  66 E5        30.45F WCI  29
ATHENS         CLOUDY    30  23  74 E8        30.39S WCI  23
PALESTINE      CLOUDY    32  24  71 NE7       30.39F WCI  26
JACKSONVILLE   CLOUDY    32  23  70 NE12G17   30.38F WCI  23
HENDERSON      CLOUDY    32  22  68 NE9       30.40F WCI  24
NACOGDOCHES    CLOUDY    34  19  55 E5        30.40S WCI  30
LUFKIN         CLOUDY    38  25  59 NE5       30.38F WCI  34
$$

SUPPLEMENTAL OBSERVATIONS (CENTRAL)

CITY           SKY/WX    TMP DP  RH WIND       PRES   REMARKS
$$

SUPPLEMENTAL OBSERVATIONS (WEST)

CITY           SKY/WX    TMP DP  RH WIND       PRES   REMARKS
$$

SUPPLEMENTAL OBSERVATIONS (EAST)

CITY           SKY/WX    TMP DP  RH WIND       PRES   REMARKS
$$

SUPPLEMENTAL OBSERVATIONS ARE A COLLECTION OF AUTOMATED INSTRUMENTS
THAT ARE MAINTAINED BY A VARIETY OF FEDERAL AND STATE AGENCIES.
CERTAIN ELEMENTS...SUCH AS HUMIDITY VALUES AND SUSTAINED WIND
SPEEDS...MAY BE APPROXIMATED.




USA.gov is the U.S. government's official web portal to all federal, state and local government web resources and services.